Find Starlink 35810

NORAD ID: 66575 Int'l Des: 2025-268 Owner: SPXS Country: US Constellation: starlink operational
LEOCIRCULAR

Live Position

Loading 3D Globe...

About Starlink 35810

Description loading...

Upcoming Passes

Passes for default location (London). Set your location on the main map for personalized predictions.

Altitude History

Loading altitude history...

Two-Line Element Set

1 66575U 25268U 26106.78152029 .00007803 00000-0 29278-3 0 9990
2 66575 43.0006 132.0939 0001182 275.5569 84.5148 15.27579201 23781
Epoch: Apr 16, 2026 • Age: 15 hours

Current Status

Altitude 491.9 km
Velocity 7.62 km/s
Sub-Earth Point -34.03°S, 83.68°E
Launch Date Nov 21, 2025
Age 0.4 years
Type internet

Technical Details

Classification Payload
Mass 575.00 kg
Dry Mass 530.00 kg
Total Mass 575.00 kg
Length 0.30 m
Diameter 4.10 m
Span 29.00 m
Shape Box + pan
Manufacturer SPXS
Bus Type Starlink V2MO
Phase Status In Orbit
Owner/State SPXS/US

Most Searched